CZ-4 DEB, 26283

Orbit data source: Space-Track

CZ-4 DEB, 26283 is space debris in SSO originally from a launch on Thu, 14 Oct 1999 UTC launched from the Taiyaun Space Center, China (TSC). Debris objects in space refer to the collection of defunct objects orbiting the Earth. Examples of debris include non-operational satellites, rocket bodies, and fragments generated from explosions, collisions, or faulty payload assembly.

Loading next visibility...
Identifier
26283, 1999-057FV
Orbit
SSO
Country
Flag of CNCN / PRC
Related business
Manufacturer
Unknown
Mission
Spacecraft
Bus & Motor
Unknown
Mass
Unknown
Launch date (UTC)
1999-10-14 (26 years ago)
Launch vehicle
Unknown
Launch site
Taiyaun Space Center, China (TSC)
Object type
Payload
Rocket body
Debris
Shape & HBR
Unknown shape, 0.1 m
Radar Cross Section
Small (<0.1 m²)

Expand to show TLE details & history
Last TLE update: 1 day ago

TLE from 1 day ago
0 CZ-4 DEB
1 26283U 99057FV  25296.14837971  .00003275  00000-0  73474-3 0  9990
2 26283  98.4882 355.7587 0078485 167.3817 255.2934 14.55378787346623
Epoch: 2025-10-23T03:33Z
TLE epoch observation values (Epoch: 2025-10-23T03:33:40.006Z)
Latitude
60.75487°
Longitude
-104.84356°
Altitude
733.011 km
Speed
7.487 km/s
True Right ascension
22h 41m 32s
True Declination
60° 36' 27"
Sunlit
Object was in full shadow at epoch
Visualization orbit readout
Latitude
Unknown
Longitude
Unknown
Altitude
Unknown
Speed
Unknown
Apparent Right ascension
Unknown
Apparent Declination
Unknown
Sunlit
N/A
Visualization observer readout
Local Sidereal Time
06:38:34
Azimuth
Unknown
Elevation
Unknown
Doppler factor
Unknown
Orbital elements
Apogee altitude
760.829 km
Perigee altitude
649.642 km
Semi-major axis
7,083.372 km
Eccentricity
0.00785
Inclination
98.4882°
RAAN
355.7587°
Arg. of periapsis
167.3817°
True anomaly
254.42569°
Mean anomaly
255.2934°
Eccentric anomaly
254.85932°
Mean motion
3.64068 °/min
Orbital period
98.88 mins
BSTAR
0.00073474
Loading maneuver chart data...
Computing Atmospheric mass density...
Loading historical data...
Loading historical data...
Loading historical data...
Loading historical data...
Loading historical data...
Loading historical data...
Loading historical data...

Documentation

Showing up to 5 results
|